Wink, TX

11:57 AM CDT on June 29, 2017 (GMT -0500)
Winkler County

Weather History for KINK - April, 2014

Change the Weather History Date:

Tuesday, April 1, 2014

  Actual Average Record
Temperature  
Mean Temperature 67 °F -  
Max Temperature 89 °F 77 °F 96 °F (1978)
Min Temperature 46 °F 43 °F 30 °F (1980)
Cooling Degree Days 2    
Growing Degree Days 17 (Base 50)    
Moisture  
Dew Point 16 °F    
Average Humidity 15    
Maximum Humidity 36    
Minimum Humidity 6    
Precipitation  
Precipitation 0.00 in - - ()
Sea Level Pressure  
Sea Level Pressure 29.75 in    
Wind  
Wind Speed 7 mph (West)    
Max Wind Speed 18 mph    
Max Gust Speed 30 mph    
Visibility 10 miles    
Events      
Averages and records for this station are not official NWS values.
T = Trace of Precipitation, MM = Missing Value Source: NWS Daily Summary

Daily Weather History Graph

Daily Weather History Graph

Search for Another Location

Airport or City:

Trip Planner

Search our weather history database for the weather conditions in past years. The results will help you decide how hot, cold, wet, or windy it might be!

Date:

Astronomy

Apr. 01, 2014 Rise Set
Actual Time 7:41 AM CDT 8:12 PM CDT
Civil Twilight 7:16 AM CDT 8:37 PM CDT
Nautical Twilight 6:47 AM CDT 9:05 PM CDT
Astronomical Twilight 6:18 AM CDT 9:35 PM CDT
Moon 8:52 AM CDT (4/1) 10:28 PM CDT (4/1)
Length of Visible Light 13h 20m
Length of Day
12h 31m
Waxing Crescent, 5% of the Moon is Illuminated
Apr 1
Waxing Crescent
Apr 7
First Quarter
Apr 15
Full
Apr 22
Last Quarter
Apr 29
New

Hourly Weather History & Observations

Time (CDT) Temp. Windchill Dew Point Humidity Pressure Visibility Wind Dir Wind Speed Gust Speed Precip Events Conditions
12:53 AM 62.1 °F - 10.9 °F 13% 29.78 in 10.0 mi NNE 4.6 mph - N/A   Clear
1:53 AM 55.9 °F - 12.0 °F 18% 29.79 in 10.0 mi ENE 3.5 mph - N/A   Clear
2:53 AM 53.1 °F - 12.9 °F 20% 29.81 in 10.0 mi SW 6.9 mph - N/A   Clear
3:53 AM 54.0 °F - 12.9 °F 20% 29.80 in 10.0 mi WSW 9.2 mph - N/A   Clear
4:53 AM 51.1 °F - 12.9 °F 22% 29.80 in 10.0 mi ENE 3.5 mph - N/A   Clear
5:53 AM 51.1 °F - 14.0 °F 23% 29.80 in 10.0 mi East 9.2 mph - N/A   Clear
6:53 AM 48.9 °F - 14.0 °F 25% 29.81 in 10.0 mi NNW 4.6 mph - N/A   Clear
7:53 AM 46.0 °F 43.1 °F 14.0 °F 28% 29.83 in 10.0 mi North 5.8 mph - N/A   Clear
8:53 AM 52.0 °F - 15.1 °F 23% 29.86 in 10.0 mi NNE 3.5 mph - N/A   Clear
9:53 AM 64.0 °F - 26.1 °F 24% 29.84 in 10.0 mi Calm Calm - N/A   Clear
10:53 AM 73.0 °F - 19.9 °F 14% 29.83 in 10.0 mi West 3.5 mph - N/A   Clear
11:53 AM 80.1 °F - 17.1 °F 9% 29.80 in 10.0 mi WSW 6.9 mph - N/A   Clear
12:53 PM 84.0 °F - 17.1 °F 8% 29.78 in 10.0 mi WSW 15.0 mph 19.6 mph N/A   Clear
1:53 PM 84.9 °F - 16.0 °F 8% 29.76 in 10.0 mi WSW 12.7 mph 18.4 mph N/A   Clear
2:53 PM 87.1 °F - 14.0 °F 7% 29.73 in 10.0 mi West 16.1 mph 29.9 mph N/A   Clear
3:53 PM 88.0 °F - 15.1 °F 7% 29.69 in 10.0 mi SW 15.0 mph 28.8 mph N/A   Clear
4:53 PM 87.1 °F - 14.0 °F 7% 29.67 in 10.0 mi West 16.1 mph 24.2 mph N/A   Clear
5:53 PM 88.0 °F - 15.1 °F 7% 29.65 in 10.0 mi West 18.4 mph 24.2 mph N/A   Clear
6:53 PM 88.0 °F - 14.0 °F 6% 29.65 in 10.0 mi West 16.1 mph 27.6 mph N/A   Clear
7:53 PM 84.0 °F - 10.9 °F 6% 29.67 in 10.0 mi West 10.4 mph - N/A   Clear
8:53 PM 80.1 °F - 10.9 °F 7% 29.67 in 10.0 mi Calm Calm - N/A   Clear
9:53 PM 75.9 °F - 10.9 °F 8% 29.68 in 10.0 mi Calm Calm - N/A   Clear
10:53 PM 66.9 °F - 14.0 °F 13% 29.68 in 10.0 mi ESE 10.4 mph - N/A   Clear
11:53 PM 69.1 °F - 41.0 °F 36% 29.66 in 10.0 mi SE 10.4 mph - N/A   Clear